(81194) = 2000 EF198 = 2001 NK11

Discovered at Catalina on 2000-03-01 by CSS.

Orbit

Orbit type: Main Belt

Note: WebGL enabled browser required.

epoch2023-09-13.0
epoch JD2460200.5
perihelion date2020-02-29.63910
perihelion JD2458909.13910
argument of perihelion (°)87.15078
ascending node (°)249.53986
inclination (°)5.86510
eccentricity0.1400833
perihelion distance (AU)2.0460981
Tisserand w.r.t. Jupiter3.5
ΔV w.r.t. Earth (km/sec)9.1
semimajor axis (AU)2.3794143
mean anomaly (°)346.77388
mean daily motion (°/day)0.26853370
aphelion distance (AU)2.713
period (years)3.67
P-vector [x]0.91348334
P-vector [y]-0.40196396
P-vector [z]-0.06303309
Q-vector [x]0.39545163
Q-vector [y]0.84066178
Q-vector [z]0.37000780
absolute magnitude15.24
phase slope0.15
uncertainty0
referenceMPEC 2024-A55
observations used1712
oppositions18
arc length (days)8680
first opposition used2000
last opposition used2023
residual rms (arc-secs)0.67
perturbers coarse indicatorM-v
perturbers precise indicator003Ek
first observation date used2000-03-01.0
last observation date used2023-12-06.0
computer nameMPCLINUX
JD of orbit computation2456700.454415
perihelion JD uncertainty (days)6.0012E-05
argument of perihelion uncertainty (°)4.7907E-05
ascending node uncertainty (°)4.5166E-05
inclination uncertainty (°)4.4242E-06
eccentricity uncertainty 4.2984E-08
perihelion distance uncertainty (AU)1.0161E-07
Minimum Orbit Intersection Distances (in AU)
for orbit epoch: 2460200.5, reference: E2024-A55
Mercury1.65306
Venus1.33274
Earth1.04621
Mars0.70108
Jupiter2.64124
Saturn6.49572
Uranus15.7577
Neptune27.5651

Observations

1732 total observations over interval: 2000 03 01.31711 – 2023 12 06.230014
These data are available for download (format description).

Date (UT) J2000 RA J2000 Dec Magn Location Ref
2000 03 01.31711 11 35 45.88 -07 08 02.4 18.5 R 703 – Catalina Sky Survey MPS 16948
2000 03 01.33298 11 35 44.96 -07 07 58.4 18.8 R 703 – Catalina Sky Survey MPS 16948
2000 03 01.34904 11 35 44.13 -07 07 53.6 18.4 R 703 – Catalina Sky Survey MPS 16948
2000 03 01.36487 11 35 43.29 -07 07 49.9 18.4 R 703 – Catalina Sky Survey MPS 16948
2000 03 09.30206 11 28 36.11 -06 26 15.8 18.1   704 – Lincoln Laboratory ETS, New Mexico MPS 16948
2000 03 09.31572 11 28 35.35 -06 26 10.4 18.6   704 – Lincoln Laboratory ETS, New Mexico MPS 16948
2000 03 09.32909 11 28 34.53 -06 26 05.2 18.6   704 – Lincoln Laboratory ETS, New Mexico MPS 16948
2000 03 09.34307 11 28 33.69 -06 26 00.9 19.1   704 – Lincoln Laboratory ETS, New Mexico MPS 16948
2000 03 09.35716 11 28 32.92 -06 25 55.7 18.8   704 – Lincoln Laboratory ETS, New Mexico MPS 16948
2000 04 04.26466 11 06 31.99 -03 33 18.1 18.2   704 – Lincoln Laboratory ETS, New Mexico MPS 32793
2000 04 04.27903 11 06 31.35 -03 33 12.7 18.3   704 – Lincoln Laboratory ETS, New Mexico MPS 32793
2000 04 04.29339 11 06 30.69 -03 33 06.1 18.4   704 – Lincoln Laboratory ETS, New Mexico MPS 32793
2000 04 26.15174 10 57 28.14 -01 31 01.7 18.8 R 699 – Lowell Observatory-LONEOS MPS 32793
2000 04 26.17150 10 57 27.91 -01 30 56.1   699 – Lowell Observatory-LONEOS MPS 32793
2000 04 26.19126 10 57 27.64 -01 30 50.9   699 – Lowell Observatory-LONEOS MPS 32793
2000 04 26.21099 10 57 27.47 -01 30 45.1   699 – Lowell Observatory-LONEOS MPS 32793
2001 05 10.43880 20 35 36.18 -14 44 47.9 19.4   644 – Palomar Mountain/NEAT MPS 32848
2001 05 10.44904 20 35 36.80 -14 44 43.5 19.1   644 – Palomar Mountain/NEAT MPS 32848
2001 05 10.45924 20 35 37.38 -14 44 38.8 18.8   644 – Palomar Mountain/NEAT MPS 32848
2001 06 16.38193 20 56 02.31 -10 34 41.7 18.8 R 699 – Lowell Observatory-LONEOS MPS 32848
2001 06 16.40069 20 56 02.34 -10 34 33.8   699 – Lowell Observatory-LONEOS MPS 32848
2001 06 16.41949 20 56 02.27 -10 34 29.3   699 – Lowell Observatory-LONEOS MPS 32848
2001 06 16.43832 20 56 02.28 -10 34 23.6   699 – Lowell Observatory-LONEOS MPS 32848
2001 06 29.32782 20 53 47.00 -09 35 54.1 17.7 R 699 – Lowell Observatory-LONEOS MPS 32848
2001 06 29.34348 20 53 46.59 -09 35 50.7   699 – Lowell Observatory-LONEOS MPS 32848
2001 06 29.35931 20 53 46.21 -09 35 47.2   699 – Lowell Observatory-LONEOS MPS 32848
2001 06 29.37533 20 53 45.79 -09 35 44.1   699 – Lowell Observatory-LONEOS MPS 32848
2001 07 14.57588 20 44 47.83 -08 58 03.2 18.2   608 – Haleakala-AMOS MPS 32424
2001 07 14.58657 20 44 47.39 -08 58 02.2 18.2   608 – Haleakala-AMOS MPS 32424
2001 07 14.59689 20 44 46.85 -08 58 01.3 18.6   608 – Haleakala-AMOS MPS 32424
2001 07 18.44464 20 41 38.84 -08 54 21.9 17.7   608 – Haleakala-AMOS MPS 32424
2001 07 18.45486 20 41 38.29 -08 54 21.5 17.7   608 – Haleakala-AMOS MPS 32424
2001 07 18.46520 20 41 37.74 -08 54 20.7 17.6   608 – Haleakala-AMOS MPS 32424
2001 08 07.30614 20 23 22.87 -09 09 42.2 17.7   608 – Haleakala-AMOS MPS 32848
2001 08 07.31664 20 23 22.27 -09 09 43.8 17.6   608 – Haleakala-AMOS MPS 32848
2001 08 07.32717 20 23 21.68 -09 09 45.0 17.6   608 – Haleakala-AMOS MPS 32848
2001 08 07.49027 20 23 12.43 -09 10 04.2 17.7   608 – Haleakala-AMOS MPS 32848
2001 08 07.50045 20 23 11.87 -09 10 05.1 17.8   608 – Haleakala-AMOS MPS 32848
2001 08 07.51071 20 23 11.28 -09 10 06.5 17.9   608 – Haleakala-AMOS MPS 32848
2001 08 17.21143 20 15 19.66 -09 32 53.7 17.4   704 – Lincoln Laboratory ETS, New Mexico MPS 33342
2001 08 17.23624 20 15 18.48 -09 32 57.5 18.0   704 – Lincoln Laboratory ETS, New Mexico MPS 33342
2001 08 17.26105 20 15 17.37 -09 33 01.1 17.9   704 – Lincoln Laboratory ETS, New Mexico MPS 33342
2001 08 20.23877 20 13 17.46 -09 41 03.2 18.0   704 – Lincoln Laboratory ETS, New Mexico MPS 33342
2001 08 20.25192 20 13 17.04 -09 41 06.6 18.3   704 – Lincoln Laboratory ETS, New Mexico MPS 33342
2001 08 20.26455 20 13 16.49 -09 41 07.9 18.3   704 – Lincoln Laboratory ETS, New Mexico MPS 33342
2001 08 25.21778 20 10 30.45 -09 54 58.1 18.7   704 – Lincoln Laboratory ETS, New Mexico MPS 34222
2001 08 25.23096 20 10 30.11 -09 55 00.1 18.4   704 – Lincoln Laboratory ETS, New Mexico MPS 34222
2001 08 25.24392 20 10 29.69 -09 55 02.0 18.4   704 – Lincoln Laboratory ETS, New Mexico MPS 34222
2001 08 25.25688 20 10 29.25 -09 55 04.4 18.3   704 – Lincoln Laboratory ETS, New Mexico MPS 34222
2001 09 20.10939 20 09 16.53 -10 57 17.9 17.7   704 – Lincoln Laboratory ETS, New Mexico MPS 35620
2001 09 20.12339 20 09 16.85 -10 57 19.5 18.1   704 – Lincoln Laboratory ETS, New Mexico MPS 35620
2001 09 20.13846 20 09 17.13 -10 57 21.1 18.1   704 – Lincoln Laboratory ETS, New Mexico MPS 35620
2001 09 20.15237 20 09 17.42 -10 57 22.2 18.4   704 – Lincoln Laboratory ETS, New Mexico MPS 35620
2001 09 20.16631 20 09 17.77 -10 57 23.8 18.3   704 – Lincoln Laboratory ETS, New Mexico MPS 35620
2001 10 04.13670 20 17 51.66 -11 10 52.9 18.6   644 – Palomar Mountain/NEAT MPS 37537
2001 10 04.14748 20 17 52.16 -11 10 52.8 18.5   644 – Palomar Mountain/NEAT MPS 37537
2001 10 04.15794 20 17 52.65 -11 10 52.9 18.6   644 – Palomar Mountain/NEAT MPS 37537
2001 10 11.11121 20 24 11.25 -11 10 01.2 18.1   704 – Lincoln Laboratory ETS, New Mexico MPS 37537
2001 10 11.12821 20 24 12.30 -11 10 00.5 18.6   704 – Lincoln Laboratory ETS, New Mexico MPS 37537
2001 10 11.14360 20 24 13.10 -11 09 58.8 18.3   704 – Lincoln Laboratory ETS, New Mexico MPS 37537
2001 10 11.15892 20 24 14.02 -11 09 59.3 18.4   704 – Lincoln Laboratory ETS, New Mexico MPS 37537
2001 10 11.17593 20 24 15.01 -11 09 58.3 18.6   704 – Lincoln Laboratory ETS, New Mexico MPS 37537
2001 11 10.07714 21 03 04.20 -10 00 27.4 18.8   704 – Lincoln Laboratory ETS, New Mexico MPS 40172
2001 11 10.10874 21 03 07.08 -10 00 18.9 19.5   704 – Lincoln Laboratory ETS, New Mexico MPS 40172
2001 11 10.13824 21 03 09.78 -10 00 10.3 19.6   704 – Lincoln Laboratory ETS, New Mexico MPS 40172
2002 11 06.42314 07 50 02.33 +18 00 27.5 19.5   704 – Lincoln Laboratory ETS, New Mexico MPS 82946
2002 11 06.43978 07 50 02.67 +18 00 24.5 19.6   704 – Lincoln Laboratory ETS, New Mexico MPS 82946
2002 11 06.47334 07 50 03.42 +18 00 15.7 19.6   704 – Lincoln Laboratory ETS, New Mexico MPS 82946
2002 11 14.42472 07 52 18.73 +17 31 00.9 18.8   704 – Lincoln Laboratory ETS, New Mexico MPS 82946
2002 11 14.46008 07 52 19.06 +17 30 53.3 19.5   704 – Lincoln Laboratory ETS, New Mexico MPS 82946
2002 11 14.47772 07 52 19.20 +17 30 49.5 19.3   704 – Lincoln Laboratory ETS, New Mexico MPS 82946
2002 11 14.49530 07 52 19.32 +17 30 45.5 19.0   704 – Lincoln Laboratory ETS, New Mexico MPS 82946
2002 12 11.39080 07 45 42.56 +16 23 34.9 18.7   704 – Lincoln Laboratory ETS, New Mexico MPS 83255
2002 12 11.40581 07 45 41.92 +16 23 33.6 18.8   704 – Lincoln Laboratory ETS, New Mexico MPS 83255
2002 12 11.42077 07 45 41.31 +16 23 32.2 19.0   704 – Lincoln Laboratory ETS, New Mexico MPS 83255
2002 12 11.43585 07 45 40.69 +16 23 31.4 18.8   704 – Lincoln Laboratory ETS, New Mexico MPS 83255
2003 01 07.30582 07 20 23.76 +16 11 23.6 18.7   704 – Lincoln Laboratory ETS, New Mexico MPS 83255
2003 01 07.32392 07 20 22.51 +16 11 24.0 19.1   704 – Lincoln Laboratory ETS, New Mexico MPS 83255
2003 01 07.33879 07 20 21.52 +16 11 24.9 18.9   704 – Lincoln Laboratory ETS, New Mexico MPS 83255
2003 01 07.35637 07 20 20.31 +16 11 24.9 19.3   704 – Lincoln Laboratory ETS, New Mexico MPS 83255
2003 01 07.37139 07 20 19.29 +16 11 24.8 19.3   704 – Lincoln Laboratory ETS, New Mexico MPS 83255
2003 01 27.26555 06 59 57.43 +16 25 44.0 19.4   704 – Lincoln Laboratory ETS, New Mexico MPS 83255
2003 01 27.28093 06 59 56.63 +16 25 44.9 19.6   704 – Lincoln Laboratory ETS, New Mexico MPS 83255
2003 01 27.29626 06 59 55.79 +16 25 45.5 19.6   704 – Lincoln Laboratory ETS, New Mexico MPS 83255
2003 02 04.16253 06 53 51.11 +16 33 45.9 19.0   704 – Lincoln Laboratory ETS, New Mexico MPS 83255
2003 02 04.17802 06 53 50.48 +16 33 46.5 19.6   704 – Lincoln Laboratory ETS, New Mexico MPS 83255
2003 02 04.19365 06 53 49.76 +16 33 47.6 19.9   704 – Lincoln Laboratory ETS, New Mexico MPS 83255
2003 02 04.20915 06 53 49.18 +16 33 48.9 19.8   704 – Lincoln Laboratory ETS, New Mexico MPS 83255
